Regional Weather Roundup
Issued by NWS

Home | Current Version | Previous Version | Text Only | Print | Product List | Glossary On
Versions: 1 2 3 4 5 6 7 8 9 10 11 12 13 14 15 16 17 18 19 20 21 22 23 24 25 26 27 28 29 30 31 32 33 34 35 36 37 38 39 40 41 42 43 44 45 46 47 48 49 50
000
ASUS43 KLSX 051457
RWRMO

WEATHER SUMMARY FOR MISSOURI
NATIONAL WEATHER SERVICE SPRINGFIELD MO
900 AM CST FRI FEB 05 2016

NOTE: "FAIR" INDICATES FEW OR NO CLOUDS BELOW 12,000 FEET WITH NO
       SIGNIFICANT WEATHER AND/OR OBSTRUCTIONS TO VISIBILITY.
       CURRENT SKY AND/OR WEATHER CONDITIONS ARE NOT AVAILABLE FOR
       CHILLICOTHE AND FARMINGTON.

MOZ001>031-035>038-043-044-053-054-051600-
...NORTHERN AND WESTERN MISSOURI...

CITY           SKY/WX    TMP DP  RH WIND       PRES   REMARKS
KANSAS CTY INT CLOUDY    26  22  84 SE7       30.41R WCI  18
LEE`S SUMMIT   CLOUDY    26  21  81 SE6       30.43R WCI  19
ST JOSEPH      CLOUDY    25  22  88 CALM      30.43S
CHILLICOTHE      N/A     26  19  74 CALM      30.46R

$$
MOZ066>068-077>081-088>096-101>105-051600-
...SOUTHWEST MISSOURI...

CITY           SKY/WX    TMP DP  RH WIND       PRES   REMARKS
SPRINGFIELD    CLOUDY    33  21  61 S3        30.39R
JOPLIN         CLOUDY    33  21  61 SW6       30.41R WCI  28

$$
MOZ032>034-039>042-045>050-055>058-069>072-051600-
...CENTRAL MISSOURI...

CITY           SKY/WX    TMP DP  RH WIND       PRES   REMARKS
COLUMBIA       NOT AVBL
JEFFERSON CITY MOSUNNY   27  22  81 NW3       30.46R
ROLLA          SUNNY     28  22  78 NE3       30.40R
SEDALIA        CLOUDY    29  21  72 E7        30.44S WCI  22

$$
MOZ051-052-059>065-051600-
...EAST CENTRAL MISSOURI...

CITY           SKY/WX    TMP DP  RH WIND       PRES   REMARKS
ST LOUIS INTL  PTSUNNY   31  22  69 N5        30.44R WCI  26

$$
MOZ072>076-082>087-097>100-106>115-051600-
...SOUTH CENTRAL AND SOUTHEAST MISSOURI...

CITY           SKY/WX    TMP DP  RH WIND       PRES   REMARKS
CAPE GIRARDEAU SUNNY     31  26  82 CALM      30.45R
POPLAR BLUFF   SUNNY     31  22  69 W3        30.45R
WEST PLAINS    CLOUDY    33  17  51 SW5       30.42R WCI  29

$$


USA.gov is the U.S. government's official web portal to all federal, state and local government web resources and services.